Hourly Data Report for September 21, 2017

All times are specified in Local Standard Time (LST). Add 1 hour to adjust for Daylight Saving Time where and when it is observed.

RESOLUTE BAY A
NUNAVUT

74°43'01.000" N
94°58'10.000" W
67.70 m
2403498
71924
YRB

Download Data

Hourly Data (September 2017)
Hourly Data Report for September 21, 2017
Temp Definition
°C
Dew Point Temp Definition
°C
Rel Hum Definition
%
Wind Dir Definition
10's deg

Wind Spd Definition
km/h
Visibility Definition
km
Stn Press Definition
kPa
Hmdx Definition


Wind Chill Definition


Weather Definition


TIME
00:00 Legend Double Dagger -4.5 -8.2 75 13 10 24.1 102.19   -9 Clear
01:00 Legend Double Dagger -3.8 -10.2 62 13 10 24.1 102.17   -8 LegendNANA
02:00 Legend Double Dagger -3.8 -10.0 62 13 8 24.1 102.16   -7 LegendNANA
03:00 Legend Double Dagger -4.4 -10.0 65 12 6 24.1 102.13   -7 Clear
04:00 Legend Double Dagger -4.2 -10.1 64 13 8 24.1 102.11   -8 LegendNANA
05:00 Legend Double Dagger -4.3 -9.7 66 12 7 24.1 102.08   -7 LegendNANA
06:00 Legend Double Dagger -4.5 -7.3 81 13 7 24.1 102.07   -8 Mainly Clear
07:00 Legend Double Dagger -4.3 -6.4 85 12 11 24.1 102.03   -9 LegendNANA
08:00 Legend Double Dagger -4.4 -6.4 86 12 6 24.1 102.00   -7 LegendNANA
09:00 Legend Double Dagger -4.1 -6.1 86 13 5 24.1 101.95   -6 Mainly Clear
10:00 Legend Double Dagger -5.9 -9.3 77 35 7 24.1 101.92   -9 LegendNANA
11:00 Legend Double Dagger -4.8 -6.8 86 33 5 24.1 101.88   -7 LegendNANA
12:00 Legend Double Dagger -4.9 -6.5 88 34 5 24.1 101.85   -7 Mainly Clear
13:00 Legend Double Dagger -4.1 -5.3 92 32 7 24.1 101.82   -7 LegendNANA
14:00 Legend Double Dagger -4.4 -5.5 92 34 9 24.1 101.80   -8 LegendNANA
15:00 Legend Double Dagger -4.8 -6.5 88 33 7 24.1 101.79   -8 Clear
16:00 Legend Double Dagger -3.9 -5.8 86 36 1 24.1 101.75   -4 LegendNANA
17:00 Legend Double Dagger -6.5 -7.9 90 36 7 24.1 101.74   -10 LegendNANA
18:00 Legend Double Dagger -8.2 -9.3 91 35 7 24.1 101.70   -12 Mostly Cloudy
19:00 Legend Double Dagger -5.5 -6.6 93 31 10 24.1 101.67   -10 LegendNANA
20:00 Legend Double Dagger -5.0 -5.7 95 29 17 0.8 101.64   -11 Freezing Fog
21:00 Legend Double Dagger -4.6 -5.2 95 28 18 12.9 101.61   -11 Cloudy
22:00 Legend Double Dagger -3.9 -4.6 95 30 22 9.7 101.55   -10 LegendNANA
23:00 Legend Double Dagger -3.5 -4.1 95 30 19 9.7 101.50   -9 LegendNANA

Notes on Data Quality.

Legend

  • E = Estimated
  • M = Missing
  • NA = Not Available
  • ‡ = Partner data that is not subject to review by the National Climate Archives
Date modified: